User: anonymous   Login
Location: Radomski Observatory
(40.2854°N, 79.5145°W)
Time: 22:00:45
(UTC-04:00)
Language:

Cosmos 1072 Rocket - Orbit

View from above orbital plane
View from above orbital plane
View from above satellite
View from above satellite

Ground track
Ground track

The orbit data is extracted from the following two-line orbital elements,

1 11239U 79003B   16151.55298221  .00000086  00000-0  73098-4 0  9998
2 11239  82.9388  12.5800 0041329  23.5803  36.6377 13.75793525875247
Epoch (UTC): 30 May 2016 13:16:17
Eccentricity: 0.0041329
inclination: 82.9388°
perigee height: 948 km
apogee height: 1009 km
right ascension of ascending node: 12.5800°
argument of perigee: 23.5803°
revolutions per day: 13.75793525
mean anomaly at epoch: 36.6377°
orbit number at epoch: 87524

The dashed part of the orbit path shows where the satellite is in the earth's shadow,  

DLR